Flag for U.S.A. Weather past 2 weeks in Jacksonville, Florida, U.S.A.

Now
50 °F

Clear.


Feels Like: 48 °F
Forecast: 46 / 77 °F
Wind: 5 mph from Southwest

Location: Jacksonville Naval Air Station

Current Time: Mar 30, 2015 at 6:28:35 AM

Latest Report: Mar 30, 2015 at 5:53 AM


Visibility: 10 mi

Pressure: 30.24 "Hg

Humidity: 77%

Dew point: 43 °F

Location of JacksonvilleLocation

Historic Weather in Jacksonville — Graph

°F

Jacksonville temperature yesterday

Maximum temperature yesterday: 64 °F (at 2:53 PM)
Minimum temperature yesterday: 50 °F (at 7:53 AM)
Average temperature yesterday: 58 °F

Past Weeks' High & Low Weather Summary

 TemperatureHumidityPressure
High90 °F (Mar 17, 3:53 PM)91% (Mar 24, 8:53 PM)30.40 "Hg (Mar 24, 8:53 PM)
Low49 °F (Mar 28, 7:53 AM)19% (Mar 16, 3:53 PM)29.71 "Hg (Mar 27, 4:53 PM)
Average69 °F68%30.05 "Hg
* Reported Mar 15 4:53 AM — Mar 30 4:53 AM, Jacksonville, Weather by CustomWeather, © 2015

Note: Actual official high and low records may vary slightly from our data, if they occured in-between our weather recording intervals... More about our weather records

Advertising

Jacksonville weather history for previous 24 hours

 ConditionsComfort  
Time TempWeatherWind HumidityBarometerVisibility
4:53 AM
Mon, Mar 30
54 °FClear.5 mph69%30.25 "Hg10 mi
3:53 AM57 °FClear.7 mph62%30.25 "Hg10 mi
2:53 AM58 °FClear.12 mph58%30.27 "Hg10 mi
1:53 AM57 °FClear.9 mph60%30.30 "Hg10 mi
12:53 AM56 °FClear.7 mph60%30.32 "Hg10 mi
11:53 PM
Sun, Mar 29
57 °FClear.10 mph58%30.32 "Hg10 mi
10:53 PM57 °FClear.8 mph58%30.34 "Hg10 mi
9:53 PM57 °FClear.9 mph51%30.35 "Hg10 mi
8:53 PM58 °FClear.8 mph47%30.33 "Hg10 mi
7:53 PM59 °FSunny.12 mph44%30.34 "Hg10 mi
6:53 PM62 °FSunny.9 mph41%30.33 "Hg10 mi
5:53 PM63 °FPassing clouds.10 mph40%30.33 "Hg10 mi
4:53 PM63 °FPassing clouds.8 mph35%30.33 "Hg10 mi
3:53 PM64 °FPassing clouds.13 mph35%30.34 "Hg10 mi
2:53 PM64 °FPassing clouds.10 mph28%30.35 "Hg10 mi
1:53 PM63 °FPassing clouds.14 mph35%30.37 "Hg10 mi
12:53 PM63 °FPassing clouds.14 mph23%30.39 "Hg10 mi
11:53 AM61 °FPassing clouds.12 mph19%30.40 "Hg10 mi
10:53 AM59 °FPassing clouds.12 mph23%30.39 "Hg10 mi
9:53 AM55 °FSunny.9 mph39%30.37 "Hg10 mi
8:53 AM51 °FSunny.10 mph48%30.35 "Hg10 mi
7:53 AM50 °FPassing clouds.15 mph46%30.32 "Hg10 mi
6:53 AM52 °FClear.16 mph40%30.30 "Hg10 mi
Weather by CustomWeather, © 2015

See weather overviewHow to use our weather pages